Regional Weather Roundup
Issued by NWS Northern Indiana

Home | Current Version | Previous Version | Text Only | Print | Product List | Glossary On
Versions: 1 2 3 4 5 6 7 8 9 10 11 12 13 14 15 16 17 18 19 20 21 22 23 24 25 26 27 28 29 30 31 32 33 34 35 36 37 38 39 40 41 42 43 44 45 46 47 48 49 50
000
ASUS43 KIWX 042110
RWRIWX

KIWX WEATHER ROUNDUP
NATIONAL WEATHER SERVICE NORTHERN INDIANA
500 PM EDT MON MAY 04 2015

NOTE: "FAIR" INDICATES FEW OR NO CLOUDS BELOW 12,000 FEET WITH NO
SIGNIFICANT WEATHER AND/OR OBSTRUCTIONS TO VISIBILITY.

* THESE STATIONS ARE NOT UNDER NWS QUALITY CONTROL. THEY ALSO MAY NOT
  REPORT WEATHER SUCH AS PRECIPITATION OR FOG.

INZ001>027-042200-
NORTHERN INDIANA

CITY           SKY/WX    TMP DP  RH WIND       PRES   REMARKS
GARY*          CLOUDY    63 N/A N/A E14       30.15R
VALPARAISO     CLOUDY    71  58  63 S6        30.14S
MICHIGAN CITY* CLOUDY    64  52  63 N8        30.15S
LAPORTE*       PTSUNNY   73  60  65 CALM      30.15S
KNOX*          CLOUDY    70  46  43 SW3       30.13F
SOUTH BEND     CLOUDY    71  57  61 NW5       30.14F
ELKHART*       PTSUNNY   73  55  53 W10       30.14S
GOSHEN         PTSUNNY   71  61  70 W10       30.13S
MONTICELLO*    CLOUDY    68  62  82 SW7       30.14S
LOGANSPORT*    CLOUDY    68  59  73 S8        30.15F
ROCHESTER*     CLOUDY    72  63  73 SW5       30.15F
WARSAW*        LGT RAIN  68  61  77 W9        30.15S
ANGOLA*        PTSUNNY   73  59  60 W10       30.12S
FORT WAYNE     CLOUDY    68  61  78 SW12      30.16F
HUNTINGTON*    CLOUDY    66  61  82 SW3       30.16S
PERU/GRISSOM   CLOUDY    70  62  76 SW8       30.14F
MARION*        CLOUDY    68  59  73 SW9       30.17S

$$
INZ028>050-042200-
CENTRAL INDIANA

CITY           SKY/WX    TMP DP  RH WIND       PRES   REMARKS
LAFAYETTE      CLOUDY    70  62  76 E3        30.12F
KOKOMO*        CLOUDY    72  63  73 SW10      30.15F
MUNCIE*        PTSUNNY   71  58  63 W8        30.16F
INDIANAPOLIS   PTSUNNY   75  59  57 S12       30.13F

$$
MIZ043>046-050>051-056>058-064>065-071>073-077>080-042200-
SOUTHWEST LOWER MICHIGAN

CITY           SKY/WX    TMP DP  RH WIND       PRES   REMARKS
BATTLE CREEK   PTSUNNY   75  56  51 W13       30.12S
BENTON HARBOR  PTSUNNY   60  54  80 VRB6      30.16R
COLDWATER*     CLOUDY    72  57  60 W10       30.12
HILLSDALE*     CLOUDY    74  58  58 W12       30.12S
HOLLAND        MOSUNNY   61  52  72 W7        30.15R
GRAND RAPIDS   PTSUNNY   74  55  51 W10       30.11S
KALAMAZOO      PTSUNNY   74  56  53 W12       30.12S
STURGIS*       PTSUNNY   72  61  68 W5        30.12S
THREE RIVERS*  FAIR      72  56  56 NW13G18   30.13S

$$
OHZ001>008-015>018-024>025-042200-
NORTHWEST OHIO

CITY           SKY/WX    TMP DP  RH WIND       PRES   REMARKS
WAUSEON*       FAIR      73  61  64 W12G18    30.12F
DEFIANCE       PTSUNNY   70  61  73 SW12G21   30.14S
FINDLAY        LGT RAIN  65  60  84 SW6       30.15S
TOLEDO EXPRESS PTSUNNY   71  59  65 SW10      30.12S
TOLEDO METCALF CLOUDY    69  59  70 SW16      30.14R
LIMA           CLOUDY    66  61  84 W3        30.17R

$$
AND FOR LAKE MICHIGAN COASTAL AND OPEN LAKE BUOY OBSERVATIONS

STATION/POSITION TEMP    WIND        PRES    VSBY  WAVE
                 AIR SEA DIR/SP/G                  HT/PER
                 (F)     (DEG/KT/KT) (MB)    (MI)  (FT/S)
CALUMET HARBOR    54      30/  6/  8   N/A
MICHIGAN CITY     55      30/ 12/ 12   N/A
BURNS HARBOR      56      70/ 12/ 15 1021.3R
SAINT JOSEPH      56     350/  5/  7 1022.0S
4 MI NW BRIDGMAN  50 49   70/  4/  6   N/A           1
MICHIGAN CITY     52 50   90/  6/  8   N/A           1

$$
&&


USA.gov is the U.S. government's official web portal to all federal, state and local government web resources and services.